Retour au catalogue

QIANFAN-45

ActifCommunicationsPO
NORAD 62246·PAYLOAD·🇨🇳 China

Lancé Dec 5, 2024 depuis Taiyuan Satellite Launch Center

Loading…

Prochains Passages (prochaines 24 heures)

TLE

FraisSource: Space-Track

Époque: Sep 14, 2026, 21:26 UTC

1 62246U 24232K   26257.89353167  .00000092  00000-0  12398-3 0  9994
2 62246  89.0164  13.5183 0016280 114.2171 246.0684 13.51027834136548

Suivez QIANFAN-45 en temps réel avec AllMySat

Download on the App Store